When you browse on this site, cookies collect data to enhance your experience and personalize the content and advertising you see.
Visit our Privacy Policy to learn more. By continuing to use the site, you agree to this use of cookies and data.
  • In Latvia
  • List of Countries
  • For 7 days
  • Water Temperature
  • Weather Map
  • Weather Widgets
  • user-avatar
    Login

    Hourly Weather Ganja

    Today, 12 November, Tuesday

    Time Temperature Precipitation Wind Pressure Humidity
    00:00 +10°C° 0 mm 0 mps 730 mmHg 50%
    01:00 +10°C° 0 mm 0 mps 730 mmHg 51%
    02:00 +10°C° 0 mm 0 mps 730 mmHg 52%
    03:00 +9°C° 0 mm 0 mps 730 mmHg 52%
    04:00 +9°C° 0 mm 0 mps 730 mmHg 52%
    05:00 +9°C° 0 mm 0 mps 730 mmHg 52%
    06:00 +10°C° 0 mm 1 mps 730 mmHg 52%
    07:00 +11°C° 0 mm 1 mps 731 mmHg 47%
    08:00 +13°C° 0 mm 1 mps 731 mmHg 42%
    09:00 +15°C° 0 mm 1 mps 732 mmHg 37%
    10:00 +16°C° 0 mm 1 mps 731 mmHg 36%
    11:00 +18°C° 0 mm 1 mps 731 mmHg 35%
    12:00 +19°C° 0 mm 1 mps 730 mmHg 34%
    13:00 +19°C° 0 mm 1 mps 730 mmHg 34%
    14:00 +19°C° 0 mm 1 mps 730 mmHg 34%
    15:00 +19°C° 0 mm 1 mps 730 mmHg 34%
    16:00 +16°C° 0 mm 1 mps 730 mmHg 39%
    17:00 +15°C° 0 mm 1 mps 730 mmHg 43%
    18:00 +13°C° 0 mm 1 mps 730 mmHg 47%
    19:00 +13°C° 0 mm 1 mps 730 mmHg 48%
    20:00 +11°C° 0 mm 0 mps 731 mmHg 49%
    21:00 +11°C° 0 mm 0 mps 731 mmHg 50%
    22:00 +10°C° 0 mm 0 mps 731 mmHg 52%
    23:00 +10°C° 0 mm 0 mps 731 mmHg 53%

    Tomorrow, 13 November, Wednesday

    Time Temperature Precipitation Wind Pressure Humidity
    00:00 +9°C° 0 mm 0 mps 731 mmHg 54%
    01:00 +9°C° 0 mm 0 mps 731 mmHg 55%
    02:00 +9°C° 0 mm 0 mps 730 mmHg 55%
    03:00 +9°C° 0 mm 0 mps 730 mmHg 55%
    04:00 +9°C° 0 mm 1 mps 730 mmHg 55%
    05:00 +9°C° 0 mm 1 mps 730 mmHg 55%
    06:00 +9°C° 0 mm 1 mps 730 mmHg 54%
    07:00 +11°C° 0 mm 1 mps 730 mmHg 50%
    08:00 +12°C° 0 mm 1 mps 731 mmHg 45%
    09:00 +14°C° 0 mm 1 mps 731 mmHg 41%
    10:00 +15°C° 0 mm 1 mps 731 mmHg 39%
    11:00 +16°C° 0 mm 1 mps 730 mmHg 37%
    12:00 +17°C° 0 mm 2 mps 730 mmHg 35%
    13:00 +17°C° 0 mm 2 mps 730 mmHg 35%
    14:00 +17°C° 0 mm 2 mps 730 mmHg 34%
    15:00 +17°C° 0 mm 2 mps 730 mmHg 34%
    16:00 +15°C° 0 mm 1 mps 730 mmHg 37%
    17:00 +14°C° 0 mm 1 mps 730 mmHg 41%
    18:00 +11°C° 0 mm 0 mps 730 mmHg 45%
    19:00 +11°C° 0 mm 0 mps 730 mmHg 46%
    20:00 +10°C° 0 mm 0 mps 730 mmHg 47%
    21:00 +10°C° 0 mm 0 mps 730 mmHg 48%
    22:00 +10°C° 0 mm 0 mps 730 mmHg 48%
    23:00 +10°C° 0 mm 0 mps 730 mmHg 48%

    Day after tomorrow, 14 November, Thursday

    Time Temperature Precipitation Wind Pressure Humidity
    00:00 +10°C° 0 mm 1 mps 730 mmHg 49%
    01:00 +10°C° 0 mm 1 mps 730 mmHg 51%
    02:00 +9°C° 0 mm 1 mps 729 mmHg 53%
    03:00 +9°C° 0 mm 1 mps 729 mmHg 55%
    04:00 +9°C° 0 mm 1 mps 729 mmHg 56%
    05:00 +9°C° 0 mm 1 mps 729 mmHg 56%
    06:00 +8°C° 0 mm 1 mps 729 mmHg 57%
    07:00 +10°C° 0 mm 1 mps 729 mmHg 53%
    08:00 +11°C° 0 mm 1 mps 729 mmHg 48%
    09:00 +13°C° 0 mm 1 mps 730 mmHg 44%
    10:00 +14°C° 0 mm 1 mps 730 mmHg 43%
    11:00 +15°C° 0 mm 2 mps 729 mmHg 41%
    12:00 +15°C° 0 mm 2 mps 729 mmHg 40%
    13:00 +16°C° 0 mm 2 mps 729 mmHg 40%
    14:00 +16°C° 0 mm 3 mps 729 mmHg 41%
    15:00 +16°C° 0 mm 3 mps 729 mmHg 42%
    16:00 +15°C° 0 mm 2 mps 729 mmHg 49%
    17:00 +13°C° 0 mm 2 mps 730 mmHg 55%
    18:00 +12°C° 0 mm 2 mps 730 mmHg 61%
    19:00 +10°C° 0 mm 2 mps 731 mmHg 63%
    20:00 +10°C° 0 mm 2 mps 731 mmHg 66%
    21:00 +10°C° 0 mm 2 mps 731 mmHg 68%
    22:00 +9°C° 0 mm 2 mps 732 mmHg 70%
    23:00 +9°C° 0 mm 2 mps 732 mmHg 73%

    15 November, Friday

    Time Temperature Precipitation Wind Pressure Humidity
    00:00 +8°C° 0 mm 2 mps 732 mmHg 75%
    01:00 +8°C° 0 mm 2 mps 732 mmHg 77%
    02:00 +7°C° 0 mm 2 mps 731 mmHg 79%
    03:00 +7°C° 0 mm 2 mps 731 mmHg 81%
    04:00 +7°C° 0 mm 2 mps 731 mmHg 82%
    05:00 +7°C° 0 mm 2 mps 731 mmHg 83%
    06:00 +8°C° 0 mm 1 mps 731 mmHg 84%
    07:00 +9°C° 0 mm 1 mps 731 mmHg 80%
    08:00 +10°C° 0 mm 1 mps 731 mmHg 77%
    09:00 +11°C° 0 mm 1 mps 731 mmHg 74%
    10:00 +10°C° 0 mm 2 mps 731 mmHg 72%
    11:00 +12°C° 0 mm 2 mps 731 mmHg 71%
    12:00 +12°C° 0 mm 2 mps 730 mmHg 70%
    13:00 +12°C° 0 mm 2 mps 730 mmHg 70%
    14:00 +11°C° 0 mm 3 mps 730 mmHg 69%
    15:00 +11°C° 0 mm 3 mps 730 mmHg 69%
    16:00 +11°C° 0 mm 3 mps 730 mmHg 69%
    17:00 +10°C° 0 mm 3 mps 731 mmHg 70%
    18:00 +9°C° 0 mm 3 mps 731 mmHg 70%
    19:00 +9°C° 0 mm 3 mps 732 mmHg 71%
    20:00 +8°C° 0 mm 4 mps 732 mmHg 73%
    21:00 +7°C° 0 mm 4 mps 732 mmHg 74%
    22:00 +7°C° 0 mm 4 mps 733 mmHg 75%
    23:00 +8°C° 0 mm 3 mps 733 mmHg 75%

    16 November, Saturday

    Time Temperature Precipitation Wind Pressure Humidity
    00:00 +7°C° 0 mm 3 mps 733 mmHg 75%
    01:00 +7°C° 0 mm 3 mps 733 mmHg 77%
    02:00 +7°C° 0 mm 2 mps 733 mmHg 79%
    03:00 +6°C° 0 mm 2 mps 733 mmHg 80%
    04:00 +6°C° 0 mm 2 mps 733 mmHg 81%
    05:00 +6°C° 0 mm 2 mps 733 mmHg 81%
    06:00 +6°C° 0 mm 2 mps 733 mmHg 82%
    07:00 +6°C° 0 mm 2 mps 733 mmHg 78%
    08:00 +7°C° 0 mm 2 mps 734 mmHg 74%
    09:00 +8°C° 0 mm 3 mps 734 mmHg 70%
    10:00 +8°C° 0 mm 3 mps 734 mmHg 67%
    11:00 +9°C° 0 mm 3 mps 733 mmHg 65%
    12:00 +9°C° 0 mm 3 mps 733 mmHg 63%
    13:00 +8°C° 0.1 mm 4 mps 733 mmHg 63%
    14:00 +8°C° 0.1 mm 4 mps 733 mmHg 64%
    15:00 +8°C° 0.1 mm 4 mps 733 mmHg 64%
    16:00 +7°C° 0 mm 4 mps 733 mmHg 66%
    17:00 +7°C° 0 mm 3 mps 734 mmHg 68%
    18:00 +7°C° 0 mm 2 mps 734 mmHg 71%
    19:00 +6°C° 0 mm 2 mps 734 mmHg 72%
    20:00 +6°C° 0 mm 2 mps 735 mmHg 74%
    21:00 +6°C° 0 mm 2 mps 735 mmHg 75%
    22:00 +5°C° 0 mm 2 mps 735 mmHg 76%
    23:00 +5°C° 0 mm 2 mps 735 mmHg 77%

    17 November, Sunday

    Time Temperature Precipitation Wind Pressure Humidity
    00:00 +6°C° 0 mm 1 mps 735 mmHg 77%
    01:00 +5°C° 0 mm 1 mps 735 mmHg 80%
    02:00 +4°C° 0 mm 1 mps 735 mmHg 83%
    03:00 +4°C° 0 mm 1 mps 735 mmHg 86%
    04:00 +4°C° 0 mm 1 mps 735 mmHg 85%
    05:00 +4°C° 0 mm 1 mps 735 mmHg 85%
    06:00 +3°C° 0 mm 1 mps 735 mmHg 85%
    07:00 +5°C° 0 mm 1 mps 735 mmHg 79%
    08:00 +6°C° 0 mm 1 mps 735 mmHg 73%
    09:00 +6°C° 0 mm 2 mps 735 mmHg 67%
    10:00 +8°C° 0 mm 1 mps 735 mmHg 65%
    11:00 +8°C° 0 mm 1 mps 734 mmHg 63%
    12:00 +9°C° 0 mm 1 mps 734 mmHg 60%
    13:00 +9°C° 0 mm 1 mps 734 mmHg 59%
    14:00 +9°C° 0 mm 1 mps 733 mmHg 58%
    15:00 +10°C° 0 mm 1 mps 733 mmHg 57%
    16:00 +9°C° 0.1 mm 1 mps 733 mmHg 61%
    17:00 +8°C° 0.1 mm 1 mps 733 mmHg 66%
    18:00 +8°C° 0.1 mm 1 mps 733 mmHg 70%
    19:00 +7°C° 0.2 mm 1 mps 733 mmHg 75%
    20:00 +7°C° 0.2 mm 1 mps 733 mmHg 81%
    21:00 +6°C° 0.2 mm 1 mps 733 mmHg 87%
    22:00 +6°C° 0.1 mm 1 mps 733 mmHg 87%
    23:00 +6°C° 0.1 mm 1 mps 733 mmHg 87%
    Show more